Location: Lafig�re
(44.4503°N, 4.0357°E)
Time: 15:23:20
(UTC+00:00)

Vanguard 2 Rocket - Pass Details

Date: 30 January 2021
Orbit: 554 x 3325 km, 32.9° (Epoch: 06 March)

Event Time Altitude Azimuth Distance (km) Brightness Sun altitude
Rises 11:42:03 0° 220° (SW) 7,296 12.1 27.9°
Reaches altitude 10° 11:47:43 10° 213° (SSW) 6,258 12.1 28.0°
Maximum altitude 12:04:10 36° 156° (SSE) 3,908 11.7 28.0°
Drops below altitude 10° 12:16:13 10° 98° (E) 4,637 10.6 27.9°
Sets 12:19:38 0° 89° (E) 5,284 10.7 27.8°
